{"data":{"norad_id":64046,"epoch":"2026-09-20T13:03:09.906624Z","epoch_age_seconds":139751,"freshness":"FRESH","line1":"1 64046U 25102AA  26263.54386466  .00016760  00000+0  58593-3 0  9993","line2":"2 64046  70.0012 340.9934 0003620 268.7698  91.3062 15.29593010 75199","mean_motion":15.2959301,"eccentricity":0.000362,"inclination_deg":70.0012,"raan_deg":340.9934,"arg_perigee_deg":268.7698,"mean_anomaly_deg":91.3062,"bstar":0.00058593,"rev_number":7519,"period_min":94.142689629577,"perigee_km":474.54646171568,"apogee_km":479.50960119845,"semimajor_km":6855.1650314571,"source":"CELESTRAK","updated_at":"2026-09-21T09:00:35.191081Z"}}